Location: Unspecified
(0.0000°N, 0.0000°E)
Time: 23:54:00
(UTC+00:00)

GONETS M 08 (M18) - Pass Details

Date: 18 May 2026
Orbit: 1470 x 1518 km, 82.5° (Epoch: 7 June)

Event Time Altitude Azimuth Distance (km) Brightness Sun altitude
Rises 04:16:37 0° 146° (SSE) 4,642 ? -23.4°
Reaches altitude 10° 04:21:18 10° 124° (SE) 3,667 ? -22.3°
Maximum altitude 04:25:47 15° 93° (E) 3,292 ? -21.3°
Drops below altitude 10° 04:30:15 10° 62° (ENE) 3,672 ? -20.3°
Sets 04:34:52 0° 41° (NE) 4,652 ? -19.2°
